Location: *
(58.7167°N, 26.1833°E)
Time: 11:38:29
(UTC+00:00)

Cosmos 1709 Rocket - Pass Details

Date: 25 August 2019
Orbit: 948 x 1002 km, 82.9° (Epoch: 19 September)

Event Time Altitude Azimuth Distance (km) Brightness Sun altitude
Rises 18:21:06 0° 346° (NNW) 3,636 7.8 -6.0°
Reaches altitude 10° 18:23:37 10° 349° (N) 2,689 7.0 -6.3°
Maximum altitude 18:29:46 73° 74° (ENE) 1,000 4.0 -6.9°
Drops below altitude 10° 18:35:55 10° 160° (SSE) 2,694 5.8 -7.6°
Enters shadow 18:37:52 - 162° (SSE) 3,430 6.4 -7.8°
